Time,TemperatureF,DewpointF,PressureIn,WindDirection,WindDirectionDegrees,WindSpeedMPH,WindSpeedGustMPH,Humidity,HourlyPrecipIn,Conditions,Clouds,dailyrainin,SoftwareType,DateUTC
2013-02-13 00:00:00,35.1,6.8,29.88,WNW,296,5.4,5.4,30,0.00,,---,0.00,VWS V14.01,2013-02-13 05:00:00,
2013-02-13 00:05:00,35.1,6.8,29.88,West,259,5.4,10.1,30,0.00,,---,0.00,VWS V14.01,2013-02-13 05:05:00,
2013-02-13 00:11:00,34.9,6.6,29.88,West,272,6.7,6.7,30,0.00,,---,0.00,VWS V14.01,2013-02-13 05:11:00,
2013-02-13 00:16:00,34.9,6.6,29.88,WNW,293,4.9,6.9,30,0.00,,---,0.00,VWS V14.01,2013-02-13 05:16:00,
2013-02-13 00:21:00,34.9,6.6,29.88,West,265,6.3,9.6,30,0.00,,---,0.00,VWS V14.01,2013-02-13 05:21:00,
2013-02-13 00:26:00,34.9,6.6,29.88,West,269,0.0,6.7,30,0.00,,---,0.00,VWS V14.01,2013-02-13 05:26:00,
2013-02-13 00:31:00,34.7,6.4,29.88,West,264,3.1,4.9,30,0.00,,---,0.00,VWS V14.01,2013-02-13 05:31:00,
2013-02-13 00:36:00,34.7,6.4,29.88,WNW,301,8.3,9.2,30,0.00,,---,0.00,VWS V14.01,2013-02-13 05:36:00,
2013-02-13 00:41:00,34.7,6.4,29.88,NW,313,5.4,6.7,30,0.00,,---,0.00,VWS V14.01,2013-02-13 05:41:00,
2013-02-13 00:46:00,34.5,7.0,29.88,WNW,288,0.0,6.7,31,0.00,,---,0.00,VWS V14.01,2013-02-13 05:46:00,
2013-02-13 00:51:00,34.5,7.0,29.88,NW,305,4.0,4.9,31,0.00,,---,0.00,VWS V14.01,2013-02-13 05:51:00,
2013-02-13 00:56:00,34.3,6.9,29.88,NW,317,6.9,8.7,31,0.00,,---,0.00,VWS V14.01,2013-02-13 05:56:00,
2013-02-13 01:01:00,34.2,6.7,29.88,West,263,2.7,6.3,31,0.00,,---,0.00,VWS V14.01,2013-02-13 06:01:00,
2013-02-13 01:06:00,34.2,6.7,29.88,West,273,0.0,8.3,31,0.00,,---,0.00,VWS V14.01,2013-02-13 06:06:00,
2013-02-13 01:11:00,34.0,6.5,29.88,West,273,0.0,0.0,31,0.00,,---,0.00,VWS V14.01,2013-02-13 06:11:00,
2013-02-13 01:16:00,34.0,6.5,29.88,West,273,0.0,4.9,31,0.00,,---,0.00,VWS V14.01,2013-02-13 06:16:00,
2013-02-13 01:21:00,34.0,6.5,29.88,West,266,3.6,4.0,31,0.00,,---,0.00,VWS V14.01,2013-02-13 06:21:00,
2013-02-13 01:26:00,33.8,6.4,29.88,WNW,296,6.3,7.8,31,0.00,,---,0.00,VWS V14.01,2013-02-13 06:26:00,
2013-02-13 01:31:00,33.8,6.4,29.88,WNW,287,3.6,6.3,31,0.00,,---,0.00,VWS V14.01,2013-02-13 06:31:00,
2013-02-13 01:36:00,33.6,6.2,29.88,WNW,285,4.0,6.3,31,0.00,,---,0.00,VWS V14.01,2013-02-13 06:36:00,
2013-02-13 01:41:00,33.6,6.2,29.88,NW,304,6.7,7.8,31,0.00,,---,0.00,VWS V14.01,2013-02-13 06:41:00,
2013-02-13 01:46:00,33.4,6.1,29.88,WNW,296,6.9,8.7,31,0.00,,---,0.00,VWS V14.01,2013-02-13 06:46:00,
2013-02-13 01:51:00,33.4,6.1,29.91,WNW,293,3.1,4.9,31,0.00,,---,0.00,VWS V14.01,2013-02-13 06:51:00,
2013-02-13 01:56:00,33.4,6.1,29.91,WNW,294,0.0,5.8,31,0.00,,---,0.00,VWS V14.01,2013-02-13 06:56:00,
2013-02-13 02:01:00,33.4,6.1,29.91,WNW,294,2.7,4.5,31,0.00,,---,0.00,VWS V14.01,2013-02-13 07:01:00,
2013-02-13 02:06:00,33.4,6.1,29.91,WNW,293,3.6,4.9,31,0.00,,---,0.00,VWS V14.01,2013-02-13 07:06:00,
2013-02-13 02:11:00,33.6,6.2,29.91,West,270,2.7,5.4,31,0.00,,---,0.00,VWS V14.01,2013-02-13 07:11:00,
2013-02-13 02:16:00,33.6,6.2,29.91,West,266,3.1,4.5,31,0.00,,---,0.00,VWS V14.01,2013-02-13 07:16:00,
2013-02-13 02:21:00,33.4,6.1,29.91,West,278,5.4,6.9,31,0.00,,---,0.00,VWS V14.01,2013-02-13 07:21:00,
2013-02-13 02:26:00,33.4,6.1,29.91,West,279,4.0,5.8,31,0.00,,---,0.00,VWS V14.01,2013-02-13 07:26:00,
2013-02-13 02:31:00,33.4,6.1,29.91,WNW,290,4.5,4.9,31,0.00,,---,0.00,VWS V14.01,2013-02-13 07:31:00,
2013-02-13 02:36:00,33.4,6.1,29.91,WNW,290,4.5,4.5,31,0.00,,---,0.00,VWS V14.01,2013-02-13 07:36:00,
2013-02-13 02:41:00,33.3,5.9,29.91,WNW,290,3.6,4.9,31,0.00,,---,0.00,VWS V14.01,2013-02-13 07:41:00,
2013-02-13 02:46:00,33.3,5.9,29.91,WNW,289,3.6,4.5,31,0.00,,---,0.00,VWS V14.01,2013-02-13 07:46:00,
2013-02-13 02:51:00,33.4,6.1,29.91,NW,310,6.7,6.7,31,0.00,,---,0.00,VWS V14.01,2013-02-13 07:51:00,
2013-02-13 02:56:00,33.4,6.1,29.91,West,275,0.0,3.6,31,0.00,,---,0.00,VWS V14.01,2013-02-13 07:56:00,
2013-02-13 03:01:00,33.3,5.9,29.91,NW,304,3.6,7.4,31,0.00,,---,0.00,VWS V14.01,2013-02-13 08:01:00,
2013-02-13 03:06:00,33.1,5.8,29.91,WNW,301,3.1,6.7,31,0.00,,---,0.00,VWS V14.01,2013-02-13 08:06:00,
2013-02-13 03:11:00,33.1,5.8,29.91,WNW,301,3.1,3.6,31,0.00,,---,0.00,VWS V14.01,2013-02-13 08:11:00,
2013-02-13 03:16:00,32.9,5.6,29.91,WNW,301,2.7,4.5,31,0.00,,---,0.00,VWS V14.01,2013-02-13 08:16:00,
2013-02-13 03:21:00,32.7,5.4,29.91,WNW,301,3.1,4.9,31,0.00,,---,0.00,VWS V14.01,2013-02-13 08:21:00,
2013-02-13 03:26:00,32.7,5.4,29.91,WNW,300,3.6,6.9,31,0.00,,---,0.00,VWS V14.01,2013-02-13 08:26:00,
2013-02-13 03:31:00,32.7,5.4,29.91,WNW,301,0.0,2.7,31,0.00,,---,0.00,VWS V14.01,2013-02-13 08:31:00,
2013-02-13 03:36:00,32.5,5.3,29.91,WNW,300,2.7,5.4,31,0.00,,---,0.00,VWS V14.01,2013-02-13 08:36:00,
2013-02-13 03:41:00,32.5,6.0,29.91,WNW,300,0.0,0.0,32,0.00,,---,0.00,VWS V14.01,2013-02-13 08:41:00,
2013-02-13 03:46:00,32.5,6.0,29.91,WNW,300,0.0,3.6,32,0.00,,---,0.00,VWS V14.01,2013-02-13 08:46:00,
2013-02-13 03:51:00,32.5,6.0,29.91,WNW,300,0.0,4.0,32,0.00,,---,0.00,VWS V14.01,2013-02-13 08:51:00,
2013-02-13 03:56:00,32.5,6.0,29.91,WNW,301,0.0,0.0,32,0.00,,---,0.00,VWS V14.01,2013-02-13 08:56:00,
2013-02-13 04:01:00,32.4,5.8,29.91,WNW,300,2.7,3.1,32,0.00,,---,0.00,VWS V14.01,2013-02-13 09:01:00,
2013-02-13 04:06:00,32.4,5.8,29.91,WNW,300,3.6,4.0,32,0.00,,---,0.00,VWS V14.01,2013-02-13 09:06:00,
2013-02-13 04:11:00,32.0,5.5,29.91,WNW,300,3.1,3.6,32,0.00,,---,0.00,VWS V14.01,2013-02-13 09:11:00,
2013-02-13 04:16:00,31.6,5.2,29.91,WNW,301,0.0,3.1,32,0.00,,---,0.00,VWS V14.01,2013-02-13 09:16:00,
2013-02-13 04:22:00,31.3,4.9,29.88,WNW,300,0.0,3.6,32,0.00,,---,0.00,VWS V14.01,2013-02-13 09:22:00,
2013-02-13 04:26:00,30.9,5.9,29.88,WNW,300,2.7,3.1,34,0.00,,---,0.00,VWS V14.01,2013-02-13 09:26:00,
2013-02-13 04:32:00,30.4,6.6,29.88,WNW,300,0.0,2.7,36,0.00,,---,0.00,VWS V14.01,2013-02-13 09:32:00,
2013-02-13 04:37:00,30.4,7.8,29.88,WNW,300,2.7,3.1,38,0.00,,---,0.00,VWS V14.01,2013-02-13 09:37:00,
2013-02-13 04:42:00,30.0,7.5,29.88,WNW,300,0.0,0.0,38,0.00,,---,0.00,VWS V14.01,2013-02-13 09:42:00,
2013-02-13 04:47:00,29.7,6.6,29.88,WNW,300,0.0,0.0,37,0.00,,---,0.00,VWS V14.01,2013-02-13 09:47:00,
2013-02-13 04:52:00,29.5,6.4,29.88,WNW,300,0.0,0.0,37,0.00,,---,0.00,VWS V14.01,2013-02-13 09:52:00,
2013-02-13 04:57:00,29.1,6.7,29.88,WNW,300,0.0,0.0,38,0.00,,---,0.00,VWS V14.01,2013-02-13 09:57:00,
2013-02-13 05:02:00,28.8,8.0,29.88,WNW,300,0.0,0.0,41,0.00,,---,0.00,VWS V14.01,2013-02-13 10:02:00,
2013-02-13 05:07:00,28.8,8.0,29.88,WNW,300,0.0,0.0,41,0.00,,---,0.00,VWS V14.01,2013-02-13 10:07:00,
2013-02-13 05:12:00,28.8,8.6,29.88,WNW,300,0.0,0.0,42,0.00,,---,0.00,VWS V14.01,2013-02-13 10:12:00,
2013-02-13 05:17:00,28.6,7.9,29.88,WNW,300,0.0,0.0,41,0.00,,---,0.00,VWS V14.01,2013-02-13 10:17:00,
2013-02-13 05:22:00,28.2,8.1,29.88,WNW,300,0.0,0.0,42,0.00,,---,0.00,VWS V14.01,2013-02-13 10:22:00,
2013-02-13 05:27:00,28.0,7.9,29.88,WNW,300,0.0,0.0,42,0.00,,---,0.00,VWS V14.01,2013-02-13 10:27:00,
2013-02-13 05:32:00,27.9,7.8,29.88,WNW,300,0.0,0.0,42,0.00,,---,0.00,VWS V14.01,2013-02-13 10:32:00,
2013-02-13 05:37:00,27.9,7.8,29.88,WNW,300,2.7,4.0,42,0.00,,---,0.00,VWS V14.01,2013-02-13 10:37:00,
2013-02-13 05:42:00,27.5,7.4,29.88,WNW,300,0.0,3.1,42,0.00,,---,0.00,VWS V14.01,2013-02-13 10:42:00,
2013-02-13 05:47:00,27.7,7.6,29.88,WNW,300,2.7,3.1,42,0.00,,---,0.00,VWS V14.01,2013-02-13 10:47:00,
2013-02-13 05:52:00,28.0,7.9,29.88,WNW,300,0.0,0.0,42,0.00,,---,0.00,VWS V14.01,2013-02-13 10:52:00,
2013-02-13 05:57:00,27.9,7.8,29.88,WNW,300,0.0,0.0,42,0.00,,---,0.00,VWS V14.01,2013-02-13 10:57:00,
2013-02-13 06:02:00,27.5,7.4,29.88,WNW,300,0.0,2.7,42,0.00,,---,0.00,VWS V14.01,2013-02-13 11:02:00,
2013-02-13 06:07:00,27.1,7.1,29.88,WNW,300,0.0,0.0,42,0.00,,---,0.00,VWS V14.01,2013-02-13 11:07:00,
2013-02-13 06:12:00,26.8,6.8,29.88,WNW,300,0.0,0.0,42,0.00,,---,0.00,VWS V14.01,2013-02-13 11:12:00,
2013-02-13 06:17:00,26.4,6.4,29.88,WNW,300,0.0,0.0,42,0.00,,---,0.00,VWS V14.01,2013-02-13 11:17:00,
2013-02-13 06:22:00,26.1,6.1,29.88,WNW,300,0.0,0.0,42,0.00,,---,0.00,VWS V14.01,2013-02-13 11:22:00,
2013-02-13 06:27:00,25.9,6.5,29.88,WNW,301,0.0,0.0,43,0.00,,---,0.00,VWS V14.01,2013-02-13 11:27:00,
2013-02-13 06:32:00,25.7,6.3,29.88,WNW,300,0.0,0.0,43,0.00,,---,0.00,VWS V14.01,2013-02-13 11:32:00,
2013-02-13 06:37:00,25.7,6.3,29.85,WNW,300,0.0,0.0,43,0.00,,---,0.00,VWS V14.01,2013-02-13 11:37:00,
2013-02-13 06:42:00,25.7,6.3,29.85,WNW,300,0.0,0.0,43,0.00,,---,0.00,VWS V14.01,2013-02-13 11:42:00,
2013-02-13 06:47:00,25.7,6.8,29.85,WNW,300,0.0,0.0,44,0.00,,---,0.00,VWS V14.01,2013-02-13 11:47:00,
2013-02-13 06:52:00,25.5,6.7,29.88,WNW,300,0.0,0.0,44,0.00,,---,0.00,VWS V14.01,2013-02-13 11:52:00,
2013-02-13 06:57:00,25.5,6.7,29.88,WNW,300,0.0,2.7,44,0.00,,---,0.00,VWS V14.01,2013-02-13 11:57:00,
2013-02-13 07:02:00,25.5,6.7,29.88,WNW,300,0.0,0.0,44,0.00,,---,0.00,VWS V14.01,2013-02-13 12:02:00,
2013-02-13 07:07:00,25.3,6.5,29.88,WNW,300,0.0,0.0,44,0.00,,---,0.00,VWS V14.01,2013-02-13 12:07:00,
2013-02-13 07:12:00,25.3,6.5,29.88,WNW,300,0.0,0.0,44,0.00,,---,0.00,VWS V14.01,2013-02-13 12:12:00,
2013-02-13 07:17:00,25.5,6.7,29.88,WNW,300,0.0,0.0,44,0.00,,---,0.00,VWS V14.01,2013-02-13 12:17:00,
2013-02-13 07:22:00,25.5,6.7,29.88,WNW,300,0.0,0.0,44,0.00,,---,0.00,VWS V14.01,2013-02-13 12:22:00,
2013-02-13 07:27:00,25.9,7.0,29.88,WNW,300,0.0,0.0,44,0.00,,---,0.00,VWS V14.01,2013-02-13 12:27:00,
2013-02-13 07:32:00,26.1,7.2,29.88,WNW,300,0.0,0.0,44,0.00,,---,0.00,VWS V14.01,2013-02-13 12:32:00,
2013-02-13 07:37:00,26.6,8.1,29.88,WNW,301,0.0,0.0,45,0.00,,---,0.00,VWS V14.01,2013-02-13 12:37:00,
2013-02-13 07:42:00,27.1,8.6,29.88,WNW,300,0.0,0.0,45,0.00,,---,0.00,VWS V14.01,2013-02-13 12:42:00,
2013-02-13 07:47:00,28.0,9.4,29.88,WNW,300,0.0,0.0,45,0.00,,---,0.00,VWS V14.01,2013-02-13 12:47:00,
2013-02-13 07:52:00,29.1,10.4,29.88,WNW,300,0.0,0.0,45,0.00,,---,0.00,VWS V14.01,2013-02-13 12:52:00,
2013-02-13 07:57:00,30.4,11.6,29.88,WNW,300,0.0,0.0,45,0.00,,---,0.00,VWS V14.01,2013-02-13 12:57:00,
2013-02-13 08:02:00,30.9,11.6,29.88,WNW,300,0.0,0.0,44,0.00,,---,0.00,VWS V14.01,2013-02-13 13:02:00,
2013-02-13 08:07:00,31.3,11.4,29.88,WNW,300,0.0,0.0,43,0.00,,---,0.00,VWS V14.01,2013-02-13 13:07:00,
2013-02-13 08:12:00,31.8,11.4,29.88,WNW,300,0.0,0.0,42,0.00,,---,0.00,VWS V14.01,2013-02-13 13:12:00,
2013-02-13 08:17:00,32.5,11.5,29.88,WNW,300,0.0,0.0,41,0.00,,---,0.00,VWS V14.01,2013-02-13 13:17:00,
2013-02-13 08:22:00,32.9,11.8,29.88,WNW,301,0.0,0.0,41,0.00,,---,0.00,VWS V14.01,2013-02-13 13:22:00,
2013-02-13 08:27:00,33.3,11.6,29.88,WNW,300,0.0,0.0,40,0.00,,---,0.00,VWS V14.01,2013-02-13 13:27:00,
2013-02-13 08:32:00,33.8,12.1,29.88,WNW,301,0.0,3.1,40,0.00,,---,0.00,VWS V14.01,2013-02-13 13:32:00,
2013-02-13 08:37:00,34.2,12.4,29.88,WNW,300,0.0,3.1,40,0.00,,---,0.00,VWS V14.01,2013-02-13 13:37:00,
2013-02-13 08:42:00,34.3,12.5,29.88,WNW,300,0.0,2.7,40,0.00,,---,0.00,VWS V14.01,2013-02-13 13:42:00,
2013-02-13 08:47:00,34.5,11.5,29.88,WNW,300,0.0,2.7,38,0.00,,---,0.00,VWS V14.01,2013-02-13 13:47:00,
2013-02-13 08:52:00,34.9,10.6,29.88,WNW,301,0.0,0.0,36,0.00,,---,0.00,VWS V14.01,2013-02-13 13:52:00,
2013-02-13 08:57:00,35.1,10.2,29.88,WNW,300,3.6,4.0,35,0.00,,---,0.00,VWS V14.01,2013-02-13 13:57:00,
2013-02-13 09:02:00,35.2,9.7,29.88,WNW,300,3.1,4.0,34,0.00,,---,0.00,VWS V14.01,2013-02-13 14:02:00,
2013-02-13 09:07:00,35.4,9.2,29.88,WNW,301,2.7,4.0,33,0.00,,---,0.00,VWS V14.01,2013-02-13 14:07:00,
2013-02-13 09:12:00,36.0,9.7,29.88,WNW,300,0.0,4.5,33,0.00,,---,0.00,VWS V14.01,2013-02-13 14:12:00,
2013-02-13 09:17:00,36.7,9.6,29.88,WNW,300,0.0,4.0,32,0.00,,---,0.00,VWS V14.01,2013-02-13 14:17:00,
2013-02-13 09:22:00,37.0,9.2,29.85,WNW,301,3.6,5.4,31,0.00,,---,0.00,VWS V14.01,2013-02-13 14:22:00,
2013-02-13 09:27:00,37.6,9.0,29.85,WNW,301,3.1,3.1,30,0.00,,---,0.00,VWS V14.01,2013-02-13 14:27:00,
2013-02-13 09:32:00,38.1,8.7,29.85,WNW,300,4.0,4.5,29,0.00,,---,0.00,VWS V14.01,2013-02-13 14:32:00,
2013-02-13 09:37:00,38.3,8.8,29.85,WNW,300,0.0,3.1,29,0.00,,---,0.00,VWS V14.01,2013-02-13 14:37:00,
2013-02-13 09:42:00,39.2,9.6,29.85,WNW,300,0.0,4.5,29,0.00,,---,0.00,VWS V14.01,2013-02-13 14:42:00,
2013-02-13 09:47:00,39.9,9.5,29.85,WNW,300,0.0,0.0,28,0.00,,---,0.00,VWS V14.01,2013-02-13 14:47:00,
2013-02-13 09:52:00,41.0,10.4,29.85,WNW,300,0.0,5.8,28,0.00,,---,0.00,VWS V14.01,2013-02-13 14:52:00,
2013-02-13 09:57:00,41.2,8.9,29.85,WNW,300,2.7,3.6,26,0.00,,---,0.00,VWS V14.01,2013-02-13 14:57:00,
2013-02-13 10:02:00,41.2,6.2,29.85,WNW,300,0.0,4.0,23,0.00,,---,0.00,VWS V14.01,2013-02-13 15:02:00,
2013-02-13 10:07:00,42.1,7.0,29.85,WNW,300,0.0,3.1,23,0.00,,---,0.00,VWS V14.01,2013-02-13 15:07:00,
2013-02-13 10:12:00,43.3,5.0,29.85,WNW,300,2.7,4.9,20,0.04,,---,0.04,VWS V14.01,2013-02-13 15:12:00,
2013-02-13 10:17:00,43.7,5.3,29.85,WNW,300,3.1,4.9,20,0.04,,---,0.04,VWS V14.01,2013-02-13 15:17:00,
2013-02-13 10:22:00,43.3,2.7,29.85,North,351,5.4,5.8,18,0.04,,---,0.04,VWS V14.01,2013-02-13 15:22:00,
2013-02-13 10:27:00,44.2,2.2,29.85,NW,324,4.0,5.4,17,0.04,,---,0.04,VWS V14.01,2013-02-13 15:27:00,
2013-02-13 10:32:00,42.6,2.1,29.85,North,7,0.0,5.8,18,0.04,,---,0.04,VWS V14.01,2013-02-13 15:32:00,
2013-02-13 10:37:00,43.5,2.8,29.85,North,7,0.0,3.1,18,0.04,,---,0.04,VWS V14.01,2013-02-13 15:37:00,
2013-02-13 10:42:00,44.4,2.3,29.85,North,7,3.6,4.0,17,0.04,,---,0.04,VWS V14.01,2013-02-13 15:42:00,
2013-02-13 10:47:00,44.8,2.6,29.85,North,7,4.5,4.5,17,0.04,,---,0.04,VWS V14.01,2013-02-13 15:47:00,
2013-02-13 10:52:00,44.2,2.2,29.85,ENE,76,0.0,4.9,17,0.04,,---,0.04,VWS V14.01,2013-02-13 15:52:00,
2013-02-13 10:57:00,45.9,3.5,29.85,West,262,7.8,9.2,17,0.04,,---,0.04,VWS V14.01,2013-02-13 15:57:00,
2013-02-13 11:02:00,46.9,4.4,29.85,NNW,337,4.0,6.7,17,0.04,,---,0.04,VWS V14.01,2013-02-13 16:02:00,
2013-02-13 11:07:00,46.9,4.4,29.85,NNE,19,3.6,6.3,17,0.04,,---,0.04,VWS V14.01,2013-02-13 16:07:00,
2013-02-13 11:12:00,46.6,4.1,29.85,NNE,20,0.0,4.5,17,0.04,,---,0.04,VWS V14.01,2013-02-13 16:12:00,
2013-02-13 11:17:00,47.3,3.4,29.85,NNE,19,0.0,3.6,16,0.00,,---,0.04,VWS V14.01,2013-02-13 16:17:00,
2013-02-13 11:22:00,48.6,4.4,29.85,NW,320,6.3,6.7,16,0.00,,---,0.04,VWS V14.01,2013-02-13 16:22:00,
2013-02-13 11:27:00,48.9,4.7,29.85,NW,320,0.0,3.6,16,0.00,,---,0.04,VWS V14.01,2013-02-13 16:27:00,
2013-02-13 11:32:00,49.1,4.9,29.85,WNW,296,6.7,6.9,16,0.00,,---,0.04,VWS V14.01,2013-02-13 16:32:00,
2013-02-13 11:38:00,49.3,5.0,29.85,WNW,299,2.7,4.5,16,0.00,,---,0.04,VWS V14.01,2013-02-13 16:38:00,
2013-02-13 11:43:00,49.6,2.4,29.85,West,265,0.0,5.4,14,0.00,,---,0.04,VWS V14.01,2013-02-13 16:43:00,
2013-02-13 11:48:00,48.9,1.8,29.85,SW,236,4.5,8.7,14,0.00,,---,0.04,VWS V14.01,2013-02-13 16:48:00,
2013-02-13 11:53:00,48.2,1.2,29.85,West,261,4.0,7.4,14,0.00,,---,0.04,VWS V14.01,2013-02-13 16:53:00,
2013-02-13 11:58:00,48.6,1.5,29.85,SW,232,3.6,6.9,14,0.00,,---,0.04,VWS V14.01,2013-02-13 16:58:00,
2013-02-13 12:03:00,48.9,1.8,29.85,WSW,238,0.0,6.3,14,0.00,,---,0.04,VWS V14.01,2013-02-13 17:03:00,
2013-02-13 12:08:00,48.6,1.5,29.83,WSW,247,4.0,7.4,14,0.00,,---,0.04,VWS V14.01,2013-02-13 17:08:00,
2013-02-13 12:13:00,48.4,1.4,29.83,SW,220,3.1,6.7,14,0.00,,---,0.04,VWS V14.01,2013-02-13 17:13:00,
2013-02-13 12:18:00,48.7,1.7,29.83,SW,220,0.0,4.5,14,0.00,,---,0.04,VWS V14.01,2013-02-13 17:18:00,
2013-02-13 12:23:00,48.0,1.1,29.83,SW,221,3.6,6.3,14,0.00,,---,0.04,VWS V14.01,2013-02-13 17:23:00,
2013-02-13 12:28:00,48.4,1.4,29.83,SW,219,3.6,5.8,14,0.00,,---,0.04,VWS V14.01,2013-02-13 17:28:00,
2013-02-13 12:33:00,48.7,1.7,29.83,SW,214,4.5,8.7,14,0.00,,---,0.04,VWS V14.01,2013-02-13 17:33:00,
2013-02-13 12:38:00,48.6,1.5,29.83,SW,214,4.0,5.4,14,0.00,,---,0.04,VWS V14.01,2013-02-13 17:38:00,
2013-02-13 12:43:00,49.3,2.1,29.83,WNW,287,4.5,7.4,14,0.00,,---,0.04,VWS V14.01,2013-02-13 17:43:00,
2013-02-13 12:48:00,49.8,2.5,29.83,WNW,287,0.0,3.1,14,0.00,,---,0.04,VWS V14.01,2013-02-13 17:48:00,
2013-02-13 12:53:00,50.2,2.8,29.80,West,260,3.6,7.8,14,0.00,,---,0.04,VWS V14.01,2013-02-13 17:53:00,
2013-02-13 12:58:00,50.2,2.8,29.80,West,268,0.0,5.8,14,0.00,,---,0.04,VWS V14.01,2013-02-13 17:58:00,
2013-02-13 13:03:00,50.4,3.0,29.80,West,266,4.9,5.4,14,0.00,,---,0.04,VWS V14.01,2013-02-13 18:03:00,
2013-02-13 13:08:00,49.8,2.5,29.80,WNW,287,6.7,11.0,14,0.00,,---,0.04,VWS V14.01,2013-02-13 18:08:00,
2013-02-13 13:13:00,50.0,2.7,29.80,West,268,0.0,6.3,14,0.00,,---,0.04,VWS V14.01,2013-02-13 18:13:00,
2013-02-13 13:18:00,49.8,2.5,29.80,WNW,289,2.7,7.4,14,0.00,,---,0.04,VWS V14.01,2013-02-13 18:18:00,
2013-02-13 13:23:00,49.5,2.3,29.80,SSW,198,3.6,5.8,14,0.00,,---,0.04,VWS V14.01,2013-02-13 18:23:00,
2013-02-13 13:28:00,48.7,1.7,29.80,SSW,201,0.0,6.7,14,0.00,,---,0.04,VWS V14.01,2013-02-13 18:28:00,
2013-02-13 13:33:00,47.7,0.8,29.80,SW,225,3.1,6.9,14,0.00,,---,0.04,VWS V14.01,2013-02-13 18:33:00,
2013-02-13 13:38:00,47.5,0.7,29.77,SSE,162,4.5,6.3,14,0.00,,---,0.04,VWS V14.01,2013-02-13 18:38:00,
2013-02-13 13:43:00,47.5,0.7,29.77,SSE,160,3.6,5.8,14,0.00,,---,0.04,VWS V14.01,2013-02-13 18:43:00,
2013-02-13 13:48:00,47.1,0.4,29.77,SSE,148,0.0,4.9,14,0.00,,---,0.04,VWS V14.01,2013-02-13 18:48:00,
2013-02-13 13:53:00,47.8,1.0,29.77,SSE,147,3.1,4.5,14,0.00,,---,0.04,VWS V14.01,2013-02-13 18:53:00,
2013-02-13 13:58:00,48.0,1.1,29.77,SSE,148,0.0,3.6,14,0.00,,---,0.04,VWS V14.01,2013-02-13 18:58:00,
2013-02-13 14:03:00,48.4,1.4,29.77,WNW,293,4.0,6.3,14,0.00,,---,0.04,VWS V14.01,2013-02-13 19:03:00,
2013-02-13 14:08:00,48.4,1.4,29.74,WNW,287,4.9,5.8,14,0.00,,---,0.04,VWS V14.01,2013-02-13 19:08:00,
2013-02-13 14:13:00,48.0,1.1,29.74,WSW,239,0.0,6.3,14,0.00,,---,0.04,VWS V14.01,2013-02-13 19:13:00,
2013-02-13 14:18:00,47.5,0.7,29.74,WSW,239,0.0,3.1,14,0.00,,---,0.04,VWS V14.01,2013-02-13 19:18:00,
2013-02-13 14:23:00,47.8,1.0,29.74,WSW,239,0.0,2.7,14,0.00,,---,0.04,VWS V14.01,2013-02-13 19:23:00,
2013-02-13 14:28:00,47.8,1.0,29.74,WNW,285,6.3,9.6,14,0.00,,---,0.04,VWS V14.01,2013-02-13 19:28:00,
2013-02-13 14:33:00,47.5,0.7,29.74,NNE,18,2.7,6.7,14,0.00,,---,0.04,VWS V14.01,2013-02-13 19:33:00,
2013-02-13 14:39:00,47.5,0.7,29.77,WNW,301,3.1,10.1,14,0.00,,---,0.04,VWS V14.01,2013-02-13 19:39:00,
2013-02-13 14:44:00,47.7,0.8,29.77,North,351,4.0,6.3,14,0.00,,---,0.04,VWS V14.01,2013-02-13 19:44:00,
2013-02-13 14:49:00,46.9,0.2,29.77,North,10,5.4,7.4,14,0.00,,---,0.04,VWS V14.01,2013-02-13 19:49:00,
2013-02-13 14:54:00,45.9,-0.6,29.74,North,10,3.1,6.3,14,0.00,,---,0.04,VWS V14.01,2013-02-13 19:54:00,
2013-02-13 14:59:00,46.0,-0.5,29.74,North,10,0.0,3.1,14,0.00,,---,0.04,VWS V14.01,2013-02-13 19:59:00,
2013-02-13 15:04:00,46.6,-0.1,29.74,North,7,0.0,4.9,14,0.00,,---,0.04,VWS V14.01,2013-02-13 20:04:00,
2013-02-13 15:09:00,46.8,0.1,29.74,North,7,3.6,3.6,14,0.00,,---,0.04,VWS V14.01,2013-02-13 20:09:00,
2013-02-13 15:14:00,46.2,-0.3,29.74,North,6,3.6,3.6,14,0.00,,---,0.04,VWS V14.01,2013-02-13 20:14:00,
2013-02-13 15:19:00,46.2,-0.3,29.74,North,7,3.1,4.5,14,0.00,,---,0.04,VWS V14.01,2013-02-13 20:19:00,
2013-02-13 15:24:00,45.5,-0.9,29.74,North,6,4.0,4.5,14,0.00,,---,0.04,VWS V14.01,2013-02-13 20:24:00,
2013-02-13 15:29:00,45.1,0.3,29.74,North,6,0.0,4.0,15,0.00,,---,0.04,VWS V14.01,2013-02-13 20:29:00,
2013-02-13 15:34:00,45.1,0.3,29.74,North,6,3.6,4.5,15,0.00,,---,0.04,VWS V14.01,2013-02-13 20:34:00,
2013-02-13 15:39:00,44.8,0.0,29.74,North,6,3.1,4.0,15,0.00,,---,0.04,VWS V14.01,2013-02-13 20:39:00,
2013-02-13 15:44:00,44.6,-0.2,29.74,North,6,0.0,3.6,15,0.00,,---,0.04,VWS V14.01,2013-02-13 20:44:00,
2013-02-13 15:49:00,44.2,-0.5,29.74,North,6,0.0,3.6,15,0.00,,---,0.04,VWS V14.01,2013-02-13 20:49:00,
2013-02-13 15:54:00,44.1,-0.6,29.74,North,6,0.0,3.6,15,0.00,,---,0.04,VWS V14.01,2013-02-13 20:54:00,
2013-02-13 15:59:00,43.5,-1.1,29.74,North,6,2.7,3.6,15,0.00,,---,0.04,VWS V14.01,2013-02-13 20:59:00,
2013-02-13 16:04:00,43.3,-1.2,29.74,North,6,0.0,3.6,15,0.00,,---,0.04,VWS V14.01,2013-02-13 21:04:00,
2013-02-13 16:09:00,43.2,-1.4,29.74,North,6,0.0,3.1,15,0.00,,---,0.04,VWS V14.01,2013-02-13 21:09:00,
2013-02-13 16:14:00,42.8,-1.6,29.74,North,6,0.0,2.7,15,0.00,,---,0.04,VWS V14.01,2013-02-13 21:14:00,
2013-02-13 16:19:00,43.0,-1.5,29.74,North,6,0.0,0.0,15,0.00,,---,0.04,VWS V14.01,2013-02-13 21:19:00,
2013-02-13 16:24:00,43.3,-1.2,29.74,North,6,2.7,3.6,15,0.00,,---,0.04,VWS V14.01,2013-02-13 21:24:00,
2013-02-13 16:29:00,43.0,-1.5,29.74,North,6,0.0,2.7,15,0.00,,---,0.04,VWS V14.01,2013-02-13 21:29:00,
2013-02-13 16:34:00,42.8,-1.6,29.74,North,6,0.0,0.0,15,0.00,,---,0.04,VWS V14.01,2013-02-13 21:34:00,
2013-02-13 16:39:00,42.4,-1.9,29.74,North,6,0.0,0.0,15,0.00,,---,0.04,VWS V14.01,2013-02-13 21:39:00,
2013-02-13 16:44:00,42.3,-2.1,29.74,North,6,0.0,0.0,15,0.00,,---,0.04,VWS V14.01,2013-02-13 21:44:00,
2013-02-13 16:49:00,41.9,-2.4,29.74,North,6,0.0,0.0,15,0.00,,---,0.04,VWS V14.01,2013-02-13 21:49:00,
2013-02-13 16:54:00,41.7,-1.2,29.71,North,6,0.0,2.7,16,0.00,,---,0.04,VWS V14.01,2013-02-13 21:54:00,
2013-02-13 16:59:00,41.4,-1.5,29.71,North,6,0.0,0.0,16,0.00,,---,0.04,VWS V14.01,2013-02-13 21:59:00,
2013-02-13 17:04:00,41.0,-1.7,29.71,North,6,0.0,0.0,16,0.00,,---,0.04,VWS V14.01,2013-02-13 22:04:00,
2013-02-13 17:09:00,40.6,-2.0,29.71,North,6,0.0,0.0,16,0.00,,---,0.04,VWS V14.01,2013-02-13 22:09:00,
2013-02-13 17:14:00,40.5,-2.2,29.71,SSE,167,7.8,7.8,16,0.00,,---,0.04,VWS V14.01,2013-02-13 22:14:00,
2013-02-13 17:19:00,39.7,-2.8,29.71,SSW,202,6.9,7.8,16,0.00,,---,0.04,VWS V14.01,2013-02-13 22:19:00,
2013-02-13 17:24:00,39.0,-3.4,29.71,South,189,0.0,2.7,16,0.00,,---,0.04,VWS V14.01,2013-02-13 22:24:00,
2013-02-13 17:29:00,38.7,-3.7,29.71,South,191,4.0,4.0,16,0.00,,---,0.04,VWS V14.01,2013-02-13 22:29:00,
2013-02-13 17:34:00,38.1,-0.5,29.71,WSW,245,3.6,4.9,19,0.00,,---,0.04,VWS V14.01,2013-02-13 22:34:00,
2013-02-13 17:39:00,37.8,-0.8,29.71,SW,218,3.1,4.0,19,0.00,,---,0.04,VWS V14.01,2013-02-13 22:39:00,
2013-02-13 17:44:00,37.6,-0.9,29.71,SW,218,4.0,4.0,19,0.00,,---,0.04,VWS V14.01,2013-02-13 22:44:00,
2013-02-13 17:50:00,37.4,-1.1,29.71,SW,217,0.0,0.0,19,0.00,,---,0.04,VWS V14.01,2013-02-13 22:50:00,
2013-02-13 17:55:00,37.4,-1.1,29.71,SW,217,0.0,0.0,19,0.00,,---,0.04,VWS V14.01,2013-02-13 22:55:00,
2013-02-13 18:00:00,37.4,-1.1,29.71,SW,217,0.0,0.0,19,0.00,,---,0.04,VWS V14.01,2013-02-13 23:00:00,
2013-02-13 18:05:00,37.2,-1.2,29.71,SW,217,0.0,0.0,19,0.00,,---,0.04,VWS V14.01,2013-02-13 23:05:00,
2013-02-13 18:10:00,37.0,-1.4,29.71,SW,217,0.0,0.0,19,0.00,,---,0.04,VWS V14.01,2013-02-13 23:10:00,
2013-02-13 18:15:00,37.0,-1.4,29.71,SW,217,0.0,0.0,19,0.00,,---,0.04,VWS V14.01,2013-02-13 23:15:00,
2013-02-13 18:20:00,37.0,-1.4,29.71,SW,217,0.0,0.0,19,0.00,,---,0.04,VWS V14.01,2013-02-13 23:20:00,
2013-02-13 18:25:00,36.9,-1.5,29.71,SW,217,0.0,0.0,19,0.00,,---,0.04,VWS V14.01,2013-02-13 23:25:00,
2013-02-13 18:30:00,36.9,-1.5,29.71,SW,217,0.0,0.0,19,0.00,,---,0.04,VWS V14.01,2013-02-13 23:30:00,
2013-02-13 18:35:00,36.7,-1.7,29.71,SW,217,0.0,0.0,19,0.00,,---,0.04,VWS V14.01,2013-02-13 23:35:00,
2013-02-13 18:40:00,36.5,-1.8,29.71,SW,217,0.0,0.0,19,0.00,,---,0.04,VWS V14.01,2013-02-13 23:40:00,
2013-02-13 18:45:00,36.3,-2.0,29.71,SW,217,0.0,0.0,19,0.00,,---,0.04,VWS V14.01,2013-02-13 23:45:00,
2013-02-13 18:50:00,35.8,0.7,29.71,SW,217,0.0,0.0,22,0.00,,---,0.04,VWS V14.01,2013-02-13 23:50:00,
2013-02-13 18:55:00,35.8,2.5,29.71,SW,217,0.0,2.7,24,0.00,,---,0.04,VWS V14.01,2013-02-13 23:55:00,
2013-02-13 19:00:00,36.0,2.7,29.71,SW,217,0.0,0.0,24,0.00,,---,0.04,VWS V14.01,2013-02-14 00:00:00,
2013-02-13 19:05:00,35.8,2.5,29.71,SW,217,0.0,2.7,24,0.00,,---,0.04,VWS V14.01,2013-02-14 00:05:00,
2013-02-13 19:10:00,35.8,2.5,29.71,SW,217,3.1,3.6,24,0.00,,---,0.04,VWS V14.01,2013-02-14 00:10:00,
2013-02-13 19:15:00,35.6,2.4,29.71,SW,217,0.0,0.0,24,0.00,,---,0.04,VWS V14.01,2013-02-14 00:15:00,
2013-02-13 19:20:00,35.4,7.1,29.71,SW,217,2.7,2.7,30,0.00,,---,0.04,VWS V14.01,2013-02-14 00:20:00,
2013-02-13 19:25:00,35.4,7.1,29.68,SW,217,2.7,2.7,30,0.00,,---,0.04,VWS V14.01,2013-02-14 00:25:00,
2013-02-13 19:30:00,35.4,7.1,29.68,SW,217,0.0,0.0,30,0.00,,---,0.04,VWS V14.01,2013-02-14 00:30:00,
2013-02-13 19:35:00,35.4,7.1,29.68,SW,217,0.0,0.0,30,0.00,,---,0.04,VWS V14.01,2013-02-14 00:35:00,
2013-02-13 19:40:00,35.4,7.1,29.71,SW,217,0.0,0.0,30,0.00,,---,0.04,VWS V14.01,2013-02-14 00:40:00,
2013-02-13 19:45:00,35.4,7.1,29.71,SW,217,0.0,0.0,30,0.00,,---,0.04,VWS V14.01,2013-02-14 00:45:00,
2013-02-13 19:50:00,35.4,7.1,29.71,SW,217,2.7,3.1,30,0.00,,---,0.04,VWS V14.01,2013-02-14 00:50:00,
2013-02-13 19:55:00,35.4,7.1,29.71,SW,217,0.0,0.0,30,0.00,,---,0.04,VWS V14.01,2013-02-14 00:55:00,
2013-02-13 20:00:00,35.4,7.1,29.71,SW,217,0.0,0.0,30,0.00,,---,0.04,VWS V14.01,2013-02-14 01:00:00,
2013-02-13 20:05:00,35.4,7.1,29.71,SW,217,0.0,0.0,30,0.00,,---,0.04,VWS V14.01,2013-02-14 01:05:00,
2013-02-13 20:10:00,35.2,6.9,29.71,SW,217,0.0,0.0,30,0.00,,---,0.04,VWS V14.01,2013-02-14 01:10:00,
2013-02-13 20:15:00,35.1,6.8,29.71,SW,217,0.0,0.0,30,0.00,,---,0.04,VWS V14.01,2013-02-14 01:15:00,
2013-02-13 20:20:00,34.9,6.6,29.71,SW,217,0.0,0.0,30,0.00,,---,0.04,VWS V14.01,2013-02-14 01:20:00,
2013-02-13 20:25:00,34.7,6.4,29.68,SW,217,0.0,0.0,30,0.00,,---,0.04,VWS V14.01,2013-02-14 01:25:00,
2013-02-13 20:30:00,34.5,7.0,29.68,SW,217,0.0,0.0,31,0.00,,---,0.04,VWS V14.01,2013-02-14 01:30:00,
2013-02-13 20:35:00,34.7,7.2,29.68,SW,217,0.0,0.0,31,0.00,,---,0.04,VWS V14.01,2013-02-14 01:35:00,
2013-02-13 20:40:00,34.7,7.2,29.68,SW,217,0.0,0.0,31,0.00,,---,0.04,VWS V14.01,2013-02-14 01:40:00,
2013-02-13 20:45:00,34.5,7.0,29.68,SW,217,0.0,0.0,31,0.00,,---,0.04,VWS V14.01,2013-02-14 01:45:00,
2013-02-13 20:50:00,34.3,6.9,29.68,SW,217,0.0,0.0,31,0.00,,---,0.04,VWS V14.01,2013-02-14 01:50:00,
2013-02-13 20:55:00,34.5,7.7,29.71,SW,217,0.0,0.0,32,0.00,,---,0.04,VWS V14.01,2013-02-14 01:55:00,
2013-02-13 21:00:00,34.5,7.7,29.71,SW,217,2.7,3.1,32,0.00,,---,0.04,VWS V14.01,2013-02-14 02:00:00,
2013-02-13 21:05:00,34.3,6.9,29.71,SW,217,0.0,0.0,31,0.00,,---,0.04,VWS V14.01,2013-02-14 02:05:00,
2013-02-13 21:10:00,34.3,7.6,29.71,SW,217,2.7,3.1,32,0.00,,---,0.04,VWS V14.01,2013-02-14 02:10:00,
2013-02-13 21:15:00,34.5,7.7,29.71,SW,217,0.0,3.1,32,0.00,,---,0.04,VWS V14.01,2013-02-14 02:15:00,
2013-02-13 21:20:00,34.5,7.7,29.71,SW,217,0.0,2.7,32,0.00,,---,0.04,VWS V14.01,2013-02-14 02:20:00,
2013-02-13 21:25:00,34.7,7.9,29.71,SW,217,3.1,3.1,32,0.00,,---,0.04,VWS V14.01,2013-02-14 02:25:00,
2013-02-13 21:30:00,34.7,7.2,29.71,SW,217,2.7,4.0,31,0.00,,---,0.04,VWS V14.01,2013-02-14 02:30:00,
2013-02-13 21:35:00,34.9,7.3,29.71,SW,217,0.0,3.1,31,0.00,,---,0.04,VWS V14.01,2013-02-14 02:35:00,
2013-02-13 21:40:00,34.9,7.3,29.71,SW,217,3.1,3.6,31,0.00,,---,0.04,VWS V14.01,2013-02-14 02:40:00,
2013-02-13 21:45:00,34.7,7.2,29.71,SW,217,3.6,4.5,31,0.00,,---,0.04,VWS V14.01,2013-02-14 02:45:00,
2013-02-13 21:51:00,34.7,7.2,29.71,SW,217,0.0,3.6,31,0.00,,---,0.04,VWS V14.01,2013-02-14 02:51:00,
2013-02-13 21:56:00,34.5,9.1,29.71,North,356,4.9,4.9,34,0.00,,---,0.04,VWS V14.01,2013-02-14 02:56:00,
2013-02-13 22:01:00,34.3,12.5,29.71,North,356,2.7,7.8,40,0.00,,---,0.04,VWS V14.01,2013-02-14 03:01:00,
2013-02-13 22:06:00,33.8,12.6,29.71,NE,37,0.0,4.9,41,0.00,,---,0.04,VWS V14.01,2013-02-14 03:06:00,
2013-02-13 22:11:00,33.6,13.0,29.71,NNE,18,2.7,6.9,42,0.00,,---,0.04,VWS V14.01,2013-02-14 03:11:00,
2013-02-13 22:16:00,33.4,13.4,29.71,NNE,16,0.0,4.0,43,0.00,,---,0.04,VWS V14.01,2013-02-14 03:16:00,
2013-02-13 22:21:00,33.3,13.7,29.71,NNE,14,3.1,4.0,44,0.00,,---,0.04,VWS V14.01,2013-02-14 03:21:00,
2013-02-13 22:26:00,33.1,15.1,29.71,NNE,14,3.1,4.9,47,0.00,,---,0.04,VWS V14.01,2013-02-14 03:26:00,
2013-02-13 22:31:00,32.9,15.9,29.71,NNE,14,3.6,3.6,49,0.00,,---,0.04,VWS V14.01,2013-02-14 03:31:00,
2013-02-13 22:36:00,32.7,16.6,29.71,NNE,14,2.7,4.5,51,0.00,,---,0.04,VWS V14.01,2013-02-14 03:36:00,
2013-02-13 22:41:00,32.7,17.0,29.71,NNE,14,3.1,4.0,52,0.00,,---,0.04,VWS V14.01,2013-02-14 03:41:00,
2013-02-13 22:46:00,32.5,17.8,29.71,NNE,14,2.7,4.0,54,0.00,,---,0.04,VWS V14.01,2013-02-14 03:46:00,
2013-02-13 22:51:00,32.5,18.2,29.71,NNE,14,3.6,3.6,55,0.00,,---,0.04,VWS V14.01,2013-02-14 03:51:00,
2013-02-13 22:56:00,32.5,18.6,29.71,NNE,14,2.7,4.0,56,0.00,,---,0.04,VWS V14.01,2013-02-14 03:56:00,
2013-02-13 23:01:00,32.5,19.0,29.71,NNE,14,0.0,0.0,57,0.00,,---,0.04,VWS V14.01,2013-02-14 04:01:00,
2013-02-13 23:06:00,32.5,19.0,29.71,NNE,14,0.0,3.1,57,0.00,,---,0.04,VWS V14.01,2013-02-14 04:06:00,
2013-02-13 23:11:00,32.5,19.4,29.71,NNE,14,0.0,3.1,58,0.00,,---,0.04,VWS V14.01,2013-02-14 04:11:00,
2013-02-13 23:16:00,32.5,19.4,29.71,NNE,14,0.0,2.7,58,0.00,,---,0.04,VWS V14.01,2013-02-14 04:16:00,
2013-02-13 23:21:00,32.5,19.8,29.71,NNE,14,0.0,0.0,59,0.00,,---,0.04,VWS V14.01,2013-02-14 04:21:00,
2013-02-13 23:26:00,32.5,19.8,29.71,NNE,14,0.0,0.0,59,0.00,,---,0.04,VWS V14.01,2013-02-14 04:26:00,
2013-02-13 23:31:00,32.5,19.8,29.71,NNE,14,0.0,0.0,59,0.00,,---,0.04,VWS V14.01,2013-02-14 04:31:00,
2013-02-13 23:36:00,32.5,20.2,29.71,NNE,14,0.0,0.0,60,0.00,,---,0.04,VWS V14.01,2013-02-14 04:36:00,
2013-02-13 23:41:00,32.5,20.2,29.71,NNE,14,0.0,0.0,60,0.00,,---,0.04,VWS V14.01,2013-02-14 04:41:00,
2013-02-13 23:46:00,32.5,20.6,29.71,NNE,14,0.0,0.0,61,0.00,,---,0.04,VWS V14.01,2013-02-14 04:46:00,
2013-02-13 23:51:00,32.4,20.4,29.71,NNE,14,0.0,0.0,61,0.00,,---,0.04,VWS V14.01,2013-02-14 04:51:00,
2013-02-13 23:56:00,32.4,20.4,29.71,NNE,14,0.0,0.0,61,0.00,,---,0.04,VWS V14.01,2013-02-14 04:56:00,